Time,TemperatureF,DewpointF,PressureIn,WindDirection,WindDirectionDegrees,WindSpeedMPH,WindSpeedGustMPH,Humidity,HourlyPrecipIn,Conditions,Clouds,dailyrainin,SoftwareType,DateUTC
2017-09-26 00:02:00,75.4,71.2,29.83,ESE,119,0.0,0.0,87,0.00,,,0.01,HR-IXPWINDi_r2_v1.1.,2017-09-26 05:02:00,
2017-09-26 00:07:00,75.4,71.5,29.82,ESE,119,0.0,0.0,88,0.00,,,0.00,HR-IXPWINDi_r2_v1.1.,2017-09-26 05:07:00,
2017-09-26 00:12:00,75.3,71.4,29.82,ESE,119,0.0,0.0,88,0.00,,,0.00,HR-IXPWINDi_r2_v1.1.,2017-09-26 05:12:00,
2017-09-26 00:17:00,75.2,71.3,29.82,ESE,119,0.0,0.0,88,0.00,,,0.00,HR-IXPWINDi_r2_v1.1.,2017-09-26 05:17:00,
2017-09-26 00:22:00,75.1,71.2,29.82,ESE,119,0.0,0.0,88,0.00,,,0.00,HR-IXPWINDi_r2_v1.1.,2017-09-26 05:22:00,
2017-09-26 00:27:00,75.0,71.1,29.82,ESE,119,0.0,0.0,88,0.00,,,0.00,HR-IXPWINDi_r2_v1.1.,2017-09-26 05:27:00,
2017-09-26 00:32:00,75.0,71.5,29.82,ESE,119,0.0,0.0,89,0.00,,,0.00,HR-IXPWINDi_r2_v1.1.,2017-09-26 05:32:00,
2017-09-26 00:37:00,74.9,71.4,29.82,ESE,119,0.0,0.0,89,0.00,,,0.00,HR-IXPWINDi_r2_v1.1.,2017-09-26 05:37:00,
2017-09-26 00:42:00,74.8,71.3,29.83,ESE,119,0.0,0.0,89,0.00,,,0.00,HR-IXPWINDi_r2_v1.1.,2017-09-26 05:42:00,
2017-09-26 00:47:00,74.6,71.1,29.82,ESE,119,0.0,0.0,89,0.00,,,0.00,HR-IXPWINDi_r2_v1.1.,2017-09-26 05:47:00,
2017-09-26 00:52:00,74.5,71.0,29.82,ESE,119,0.0,0.0,89,0.00,,,0.00,HR-IXPWINDi_r2_v1.1.,2017-09-26 05:52:00,
2017-09-26 00:57:00,74.4,71.2,29.82,ESE,119,0.0,0.0,90,0.00,,,0.00,HR-IXPWINDi_r2_v1.1.,2017-09-26 05:57:00,
2017-09-26 01:02:00,74.3,71.1,29.82,ESE,119,0.0,0.0,90,0.00,,,0.00,HR-IXPWINDi_r2_v1.1.,2017-09-26 06:02:00,
2017-09-26 01:07:00,74.3,71.1,29.82,ESE,119,0.0,0.0,90,0.00,,,0.00,HR-IXPWINDi_r2_v1.1.,2017-09-26 06:07:00,
2017-09-26 01:12:00,74.2,71.0,29.82,ESE,119,0.0,0.0,90,0.00,,,0.00,HR-IXPWINDi_r2_v1.1.,2017-09-26 06:12:00,
2017-09-26 01:17:00,74.1,70.9,29.82,ESE,119,0.0,0.0,90,0.00,,,0.00,HR-IXPWINDi_r2_v1.1.,2017-09-26 06:17:00,
2017-09-26 01:22:00,74.0,71.1,29.82,ESE,119,0.0,0.0,91,0.00,,,0.00,HR-IXPWINDi_r2_v1.1.,2017-09-26 06:22:00,
2017-09-26 01:28:00,74.0,71.1,29.82,ESE,119,0.0,0.0,91,0.00,,,0.00,HR-IXPWINDi_r2_v1.1.,2017-09-26 06:28:00,
2017-09-26 01:33:00,73.9,71.0,29.82,ESE,119,0.0,0.0,91,0.00,,,0.00,HR-IXPWINDi_r2_v1.1.,2017-09-26 06:33:00,
2017-09-26 01:38:00,73.9,71.4,29.82,ESE,119,0.0,0.0,92,0.00,,,0.00,HR-IXPWINDi_r2_v1.1.,2017-09-26 06:38:00,
2017-09-26 01:43:00,73.9,71.4,29.83,ESE,119,0.0,0.0,92,0.00,,,0.00,HR-IXPWINDi_r2_v1.1.,2017-09-26 06:43:00,
2017-09-26 01:48:00,73.9,71.4,29.83,ESE,119,0.0,0.0,92,0.00,,,0.00,HR-IXPWINDi_r2_v1.1.,2017-09-26 06:48:00,
2017-09-26 01:53:00,73.9,71.4,29.83,ESE,119,0.0,0.0,92,0.00,,,0.00,HR-IXPWINDi_r2_v1.1.,2017-09-26 06:53:00,
2017-09-26 01:58:00,73.8,71.3,29.83,ESE,119,0.0,0.0,92,0.00,,,0.00,HR-IXPWINDi_r2_v1.1.,2017-09-26 06:58:00,
2017-09-26 02:03:00,73.8,71.3,29.83,ESE,119,0.0,0.0,92,0.00,,,0.00,HR-IXPWINDi_r2_v1.1.,2017-09-26 07:03:00,
2017-09-26 02:08:00,73.8,71.3,29.84,ESE,119,0.0,0.0,92,0.00,,,0.00,HR-IXPWINDi_r2_v1.1.,2017-09-26 07:08:00,
2017-09-26 02:13:00,73.7,71.2,29.84,ESE,119,0.0,0.0,92,0.00,,,0.00,HR-IXPWINDi_r2_v1.1.,2017-09-26 07:13:00,
2017-09-26 02:18:00,73.6,71.1,29.84,ESE,119,0.0,0.0,92,0.00,,,0.00,HR-IXPWINDi_r2_v1.1.,2017-09-26 07:18:00,
2017-09-26 02:23:00,73.6,71.4,29.84,ESE,119,0.0,0.0,93,0.00,,,0.00,HR-IXPWINDi_r2_v1.1.,2017-09-26 07:23:00,
2017-09-26 02:28:00,73.5,71.3,29.84,ESE,119,0.0,0.0,93,0.00,,,0.00,HR-IXPWINDi_r2_v1.1.,2017-09-26 07:28:00,
2017-09-26 02:33:00,73.5,71.3,29.84,ESE,119,0.0,0.0,93,0.00,,,0.00,HR-IXPWINDi_r2_v1.1.,2017-09-26 07:33:00,
2017-09-26 02:38:00,73.5,71.3,29.84,ESE,119,0.0,0.0,93,0.00,,,0.00,HR-IXPWINDi_r2_v1.1.,2017-09-26 07:38:00,
2017-09-26 02:43:00,73.4,71.2,29.84,ESE,119,0.0,0.0,93,0.00,,,0.00,HR-IXPWINDi_r2_v1.1.,2017-09-26 07:43:00,
2017-09-26 02:48:00,73.4,71.2,29.84,ESE,119,0.0,0.0,93,0.00,,,0.00,HR-IXPWINDi_r2_v1.1.,2017-09-26 07:48:00,
2017-09-26 02:53:00,73.4,71.2,29.84,ESE,119,0.0,0.0,93,0.00,,,0.00,HR-IXPWINDi_r2_v1.1.,2017-09-26 07:53:00,
2017-09-26 02:58:00,73.4,71.2,29.84,ESE,119,0.0,0.0,93,0.00,,,0.00,HR-IXPWINDi_r2_v1.1.,2017-09-26 07:58:00,
2017-09-26 03:03:00,73.4,71.2,29.84,ESE,119,0.0,0.0,93,0.00,,,0.00,HR-IXPWINDi_r2_v1.1.,2017-09-26 08:03:00,
2017-09-26 03:08:00,73.3,71.1,29.84,ESE,119,0.0,0.0,93,0.00,,,0.00,HR-IXPWINDi_r2_v1.1.,2017-09-26 08:08:00,
2017-09-26 03:13:00,73.3,71.1,29.84,ESE,119,0.0,0.0,93,0.00,,,0.00,HR-IXPWINDi_r2_v1.1.,2017-09-26 08:13:00,
2017-09-26 03:18:00,73.1,70.9,29.84,ESE,119,0.0,0.0,93,0.00,,,0.00,HR-IXPWINDi_r2_v1.1.,2017-09-26 08:18:00,
2017-09-26 03:23:00,73.0,70.8,29.84,ESE,119,0.0,0.0,93,0.00,,,0.00,HR-IXPWINDi_r2_v1.1.,2017-09-26 08:23:00,
2017-09-26 03:28:00,72.9,70.7,29.83,ESE,119,0.0,0.0,93,0.00,,,0.00,HR-IXPWINDi_r2_v1.1.,2017-09-26 08:28:00,
2017-09-26 03:33:00,72.9,70.7,29.83,ESE,119,0.0,0.0,93,0.00,,,0.00,HR-IXPWINDi_r2_v1.1.,2017-09-26 08:33:00,
2017-09-26 03:38:00,72.9,71.0,29.83,ESE,119,0.0,0.0,94,0.00,,,0.00,HR-IXPWINDi_r2_v1.1.,2017-09-26 08:38:00,
2017-09-26 03:43:00,72.8,70.9,29.83,ESE,119,0.0,0.0,94,0.00,,,0.00,HR-IXPWINDi_r2_v1.1.,2017-09-26 08:43:00,
2017-09-26 03:48:00,72.7,70.5,29.83,ESE,119,0.0,0.0,93,0.00,,,0.00,HR-IXPWINDi_r2_v1.1.,2017-09-26 08:48:00,
2017-09-26 03:53:00,72.6,70.4,29.83,ESE,119,0.0,0.0,93,0.00,,,0.00,HR-IXPWINDi_r2_v1.1.,2017-09-26 08:53:00,
2017-09-26 03:58:00,72.5,70.3,29.83,ESE,119,0.0,0.0,93,0.00,,,0.00,HR-IXPWINDi_r2_v1.1.,2017-09-26 08:58:00,
2017-09-26 04:03:00,72.5,70.3,29.83,ESE,119,0.0,0.0,93,0.00,,,0.00,HR-IXPWINDi_r2_v1.1.,2017-09-26 09:03:00,
2017-09-26 04:08:00,72.5,70.6,29.83,ESE,119,0.0,0.0,94,0.00,,,0.00,HR-IXPWINDi_r2_v1.1.,2017-09-26 09:08:00,
2017-09-26 04:13:00,72.6,70.7,29.83,ESE,119,0.0,0.0,94,0.00,,,0.00,HR-IXPWINDi_r2_v1.1.,2017-09-26 09:13:00,
2017-09-26 04:18:00,72.6,71.0,29.82,ESE,119,0.0,0.0,95,0.00,,,0.00,HR-IXPWINDi_r2_v1.1.,2017-09-26 09:18:00,
2017-09-26 04:23:00,72.6,70.7,29.82,ESE,119,0.0,0.0,94,0.00,,,0.00,HR-IXPWINDi_r2_v1.1.,2017-09-26 09:23:00,
2017-09-26 04:28:00,72.6,70.7,29.82,ESE,119,0.0,0.0,94,0.00,,,0.00,HR-IXPWINDi_r2_v1.1.,2017-09-26 09:28:00,
2017-09-26 04:33:00,72.6,71.0,29.82,ESE,119,0.0,0.0,95,0.00,,,0.00,HR-IXPWINDi_r2_v1.1.,2017-09-26 09:33:00,
2017-09-26 04:38:00,72.6,71.0,29.81,ESE,119,0.0,0.0,95,0.00,,,0.00,HR-IXPWINDi_r2_v1.1.,2017-09-26 09:38:00,
2017-09-26 04:43:00,72.6,71.0,29.81,ESE,119,0.0,0.0,95,0.00,,,0.00,HR-IXPWINDi_r2_v1.1.,2017-09-26 09:43:00,
2017-09-26 04:48:00,72.6,71.0,29.81,ESE,119,0.0,0.0,95,0.00,,,0.00,HR-IXPWINDi_r2_v1.1.,2017-09-26 09:48:00,
2017-09-26 04:53:00,72.6,71.0,29.81,ESE,119,0.0,0.0,95,0.00,,,0.00,HR-IXPWINDi_r2_v1.1.,2017-09-26 09:53:00,
2017-09-26 04:58:00,72.6,71.0,29.81,ESE,119,0.0,0.0,95,0.00,,,0.00,HR-IXPWINDi_r2_v1.1.,2017-09-26 09:58:00,
2017-09-26 05:03:00,72.7,71.1,29.81,ESE,119,0.0,0.0,95,0.00,,,0.00,HR-IXPWINDi_r2_v1.1.,2017-09-26 10:03:00,
2017-09-26 05:08:00,72.7,71.1,29.82,ESE,119,0.0,0.0,95,0.00,,,0.00,HR-IXPWINDi_r2_v1.1.,2017-09-26 10:08:00,
2017-09-26 05:13:00,72.7,71.1,29.82,ESE,119,0.0,0.0,95,0.00,,,0.00,HR-IXPWINDi_r2_v1.1.,2017-09-26 10:13:00,
2017-09-26 05:19:00,72.7,71.1,29.82,ESE,119,0.0,0.0,95,0.00,,,0.00,HR-IXPWINDi_r2_v1.1.,2017-09-26 10:19:00,
2017-09-26 05:24:00,72.7,71.1,29.82,ESE,119,0.0,0.0,95,0.00,,,0.00,HR-IXPWINDi_r2_v1.1.,2017-09-26 10:24:00,
2017-09-26 05:29:00,72.7,71.1,29.82,ESE,119,0.0,0.0,95,0.00,,,0.00,HR-IXPWINDi_r2_v1.1.,2017-09-26 10:29:00,
2017-09-26 05:34:00,72.7,71.4,29.82,ESE,119,0.0,0.0,96,0.00,,,0.00,HR-IXPWINDi_r2_v1.1.,2017-09-26 10:34:00,
2017-09-26 05:39:00,72.7,71.4,29.82,ESE,119,0.0,0.0,96,0.00,,,0.00,HR-IXPWINDi_r2_v1.1.,2017-09-26 10:39:00,
2017-09-26 05:44:00,72.7,71.4,29.82,ESE,119,0.0,0.0,96,0.00,,,0.00,HR-IXPWINDi_r2_v1.1.,2017-09-26 10:44:00,
2017-09-26 05:49:00,72.7,71.4,29.82,ESE,119,0.0,0.0,96,0.00,,,0.00,HR-IXPWINDi_r2_v1.1.,2017-09-26 10:49:00,
2017-09-26 05:54:00,72.7,71.4,29.82,ESE,119,0.0,0.0,96,0.00,,,0.00,HR-IXPWINDi_r2_v1.1.,2017-09-26 10:54:00,
2017-09-26 05:59:00,72.7,71.4,29.82,ESE,119,0.0,0.0,96,0.00,,,0.00,HR-IXPWINDi_r2_v1.1.,2017-09-26 10:59:00,
2017-09-26 06:04:00,72.7,71.4,29.82,ESE,119,0.0,0.0,96,0.00,,,0.00,HR-IXPWINDi_r2_v1.1.,2017-09-26 11:04:00,
2017-09-26 06:09:00,72.6,71.3,29.82,ESE,119,0.0,0.0,96,0.00,,,0.00,HR-IXPWINDi_r2_v1.1.,2017-09-26 11:09:00,
2017-09-26 06:14:00,72.6,71.3,29.83,ESE,119,0.0,0.0,96,0.00,,,0.00,HR-IXPWINDi_r2_v1.1.,2017-09-26 11:14:00,
2017-09-26 06:19:00,72.6,71.3,29.83,ESE,119,0.0,0.0,96,0.00,,,0.00,HR-IXPWINDi_r2_v1.1.,2017-09-26 11:19:00,
2017-09-26 06:24:00,72.6,71.3,29.83,ESE,119,0.0,0.0,96,0.00,,,0.00,HR-IXPWINDi_r2_v1.1.,2017-09-26 11:24:00,
2017-09-26 06:29:00,72.6,71.3,29.83,ESE,119,0.0,0.0,96,0.00,,,0.00,HR-IXPWINDi_r2_v1.1.,2017-09-26 11:29:00,